KX4BE Weather Reports


Display with metric or nautical units.
time (UTC)temp
F
wind
direction
speed
MPH
gust
MPH
rain 1hr
in
rain 24hr
in
rain mn
in
humidity
%
barometer
mb
20260903190345 100 178 4.0 9.0 0.00 0.00 0.00 45 1019.0
20260903185842 100 144 3.0 7.0 0.00 0.00 0.00 45 1019.1
20260903185339 100 39 3.0 10.0 0.00 0.00 0.00 45 1019.0
20260903184837 99 171 3.0 10.0 0.00 0.00 0.00 46 1019.1
20260903184335 99 5 2.0 9.0 0.00 0.00 0.00 47 1019.1
20260903183853 98 151 4.0 9.0 0.00 0.00 0.00 48 1019.2
20260903183408 98 155 5.0 9.0 0.00 0.00 0.00 48 1019.3
20260903182843 98 107 4.0 9.0 0.00 0.00 0.00 50 1019.4
20260903182341 98 316 3.0 10.0 0.00 0.00 0.00 52 1019.4
20260903181835 98 51 4.0 10.0 0.00 0.00 0.00 52 1019.5
20260903181334 98 46 3.0 8.0 0.00 0.00 0.00 52 1019.5
20260903180851 97 86 3.0 8.0 0.00 0.00 0.00 53 1019.6
20260903175838 97 81 3.0 9.0 0.00 0.00 0.00 54 1019.7
20260903175337 97 44 4.0 9.0 0.00 0.00 0.00 54 1019.8
20260903174832 98 61 3.0 10.0 0.00 0.00 0.00 53 1019.8
20260903174332 98 127 5.0 10.0 0.00 0.00 0.00 54 1019.8
20260903173848 97 109 4.0 7.0 0.00 0.00 0.00 55 1019.9
20260903173403 97 36 1.0 8.0 0.00 0.00 0.00 55 1019.9
20260903172841 97 11 4.0 10.0 0.00 0.00 0.00 55 1020.0
20260903172340 96 91 3.0 10.0 0.00 0.00 0.00 55 1019.9
20260903171838 96 188 5.0 11.0 0.00 0.00 0.00 55 1020.1
20260903171333 97 182 3.0 11.0 0.00 0.00 0.00 55 1020.2
20260903170851 96 114 4.0 9.0 0.00 0.00 0.00 55 1020.4
20260903170347 96 38 2.0 6.0 0.00 0.00 0.00 56 1020.4
20260903165844 96 142 3.0 7.0 0.00 0.00 0.00 57 1020.4
20260903165403 96 101 2.0 8.0 0.00 0.00 0.00 59 1020.6
20260903164839 95 118 2.0 6.0 0.00 0.00 0.00 60 1020.6
20260903164337 95 150 4.0 6.0 0.00 0.00 0.00 58 1020.6
20260903163834 94 123 3.0 7.0 0.00 0.00 0.00 58 1020.7
20260903163333 94 49 3.0 8.0 0.00 0.00 0.00 59 1020.9
20260903162850 94 80 5.0 8.0 0.00 0.00 0.00 59 1020.8
20260903162349 94 72 3.0 6.0 0.00 0.00 0.00 60 1020.9
20260903161844 94 54 3.0 6.0 0.00 0.00 0.00 62 1020.9
20260903161342 94 132 3.0 5.0 0.00 0.00 0.00 62 1021.0
20260903160834 93 28 2.0 6.0 0.00 0.00 0.00 62 1020.9
20260903160408 93 126 4.0 6.0 0.00 0.00 0.00 63 1021.0
20260903155842 92 284 1.0 4.0 0.00 0.00 0.00 64 1021.1
20260903155341 92 274 1.0 5.0 0.00 0.00 0.00 66 1021.1
20260903154838 91 66 2.0 4.0 0.00 0.00 0.00 67 1021.2
20260903154337 91 40 2.0 8.0 0.00 0.00 0.00 66 1021.1
20260903153855 91 75 4.0 8.0 0.00 0.00 0.00 65 1021.1
20260903153348 92 41 3.0 8.0 0.00 0.00 0.00 65 1021.1
20260903152846 92 65 3.0 8.0 0.00 0.00 0.00 66 1021.2
20260903152345 91 103 2.0 6.0 0.00 0.00 0.00 67 1021.3
20260903151840 91 94 2.0 6.0 0.00 0.00 0.00 67 1021.2
20260903151339 90 5 2.0 4.0 0.00 0.00 0.00 68 1021.3
20260903150838 90 82 2.0 4.0 0.00 0.00 0.00 68 1021.3
20260903150334 90 350 1.0 4.0 0.00 0.00 0.00 68 1021.2
20260903145830 90 43 1.0 5.0 0.00 0.00 0.00 69 1021.2
20260903145349 89 101 2.0 5.0 0.00 0.00 0.00 69 1021.1
20260903144843 89 42 1.0 5.0 0.00 0.00 0.00 70 1021.2
20260903144342 89 47 3.0 6.0 0.00 0.00 0.00 69 1021.2
20260903143838 88 82 4.0 6.0 0.00 0.00 0.00 70 1021.1
20260903143353 88 87 2.0 6.0 0.00 0.00 0.00 71 1021.2
20260903142846 88 67 4.0 8.0 0.00 0.00 0.00 71 1021.1
20260903142406 88 66 3.0 8.0 0.00 0.00 0.00 71 1021.1
20260903141842 87 33 1.0 5.0 0.00 0.00 0.00 71 1021.2
20260903141341 87 24 1.0 6.0 0.00 0.00 0.00 71 1021.3
20260903140841 87 43 3.0 6.0 0.00 0.00 0.00 72 1021.2
20260903140336 86 87 2.0 6.0 0.00 0.00 0.00 73 1021.2
20260903135833 86 360 2.0 5.0 0.00 0.00 0.00 74 1021.2
20260903135330 85 18 2.0 5.0 0.00 0.00 0.00 73 1021.2
20260903134847 85 20 1.0 5.0 0.00 0.00 0.00 75 1021.1
20260903134330 85 31 2.0 5.0 0.00 0.00 0.00 74 1021.1
20260903133848 85 28 0.0 3.0 0.00 0.00 0.00 74 1021.2
20260903133343 85 26 1.0 5.0 0.00 0.00 0.00 75 1021.1
20260903132841 85 355 3.0 5.0 0.00 0.00 0.00 74 1021.1
20260903132341 85 32 3.0 4.0 0.00 0.00 0.00 75 1021.1
20260903131837 85 94 1.0 4.0 0.00 0.00 0.00 75 1021.2
20260903131335 85 94 2.0 4.0 0.00 0.00 0.00 75 1021.1
20260903130835 84 208 1.0 2.0 0.00 0.00 0.00 76 1021.2
20260903130351 84 207 1.0 2.0 0.00 0.00 0.00 77 1021.2
20260903125848 83 207 0.0 2.0 0.00 0.00 0.00 78 1021.1
20260903125346 83 207 1.0 2.0 0.00 0.00 0.00 79 1021.1
20260903124901 82 207 1.0 2.0 0.00 0.00 0.00 80 1021.2
20260903124339 81 207 1.0 2.0 0.00 0.00 0.00 82 1021.1
20260903123837 80 209 0.0 1.0 0.00 0.00 0.00 85 1021.2
20260903123331 79 209 0.0 1.0 0.00 0.00 0.00 87 1021.2
20260903122847 79 209 0.0 0.0 0.00 0.00 0.00 88 1021.2
20260903122407 78 209 0.0 0.0 0.00 0.00 0.00 89 1021.2
20260903121842 77 209 0.0 1.0 0.00 0.00 0.00 90 1021.2
20260903121337 77 209 0.0 1.0 0.00 0.00 0.00 91 1021.2
20260903120838 76 209 0.0 0.0 0.00 0.00 0.00 92 1021.0
20260903120334 76 209 0.0 1.0 0.00 0.00 0.00 92 1020.9
20260903115832 76 209 0.0 1.0 0.00 0.00 0.00 93 1020.9
20260903115351 75 209 0.0 0.0 0.00 0.00 0.00 93 1020.9
20260903114846 75 209 0.0 0.0 0.00 0.00 0.00 93 1020.9
20260903114345 75 209 0.0 0.0 0.00 0.00 0.00 93 1020.8
20260903113839 75 209 0.0 0.0 0.00 0.00 0.00 93 1020.7
20260903113334 75 209 0.0 0.0 0.00 0.00 0.00 93 1020.6
20260903112831 75 209 0.0 0.0 0.00 0.00 0.00 93 1020.6
20260903112349 75 209 0.0 0.0 0.00 0.00 0.00 92 1020.6
20260903111845 75 209 0.0 0.0 0.00 0.00 0.00 92 1020.6
20260903111344 75 209 0.0 0.0 0.00 0.00 0.00 92 1020.5
20260903110841 75 209 0.0 0.0 0.00 0.00 0.00 92 1020.4
20260903110336 75 209 0.0 0.0 0.00 0.00 0.00 91 1020.3
20260903105834 75 209 0.0 0.0 0.00 0.00 0.00 91 1020.2
20260903105337 75 209 0.0 0.0 0.00 0.00 0.00 91 1020.2
20260903104832 75 209 0.0 0.0 0.00 0.00 0.00 91 1020.1
20260903104351 75 209 0.0 0.0 0.00 0.00 0.00 91 1020.2
20260903103845 76 209 0.0 0.0 0.00 0.00 0.00 91 1020.1
20260903103338 76 209 0.0 0.0 0.00 0.00 0.00 91 1020.2
20260903102836 76 209 0.0 0.0 0.00 0.00 0.00 91 1020.3
20260903102355 76 209 0.0 0.0 0.00 0.00 0.00 90 1020.2
20260903101851 76 209 0.0 0.0 0.00 0.00 0.00 90 1020.2
20260903101349 76 209 0.0 0.0 0.00 0.00 0.00 90 1020.2
20260903100846 76 209 0.0 0.0 0.00 0.00 0.00 90 1020.2
20260903100342 76 209 0.0 0.0 0.00 0.00 0.00 89 1020.2
20260903095836 76 209 0.0 0.0 0.00 0.00 0.00 89 1020.1
20260903095336 76 209 0.0 0.0 0.00 0.00 0.00 89 1020.1
20260903094832 76 209 0.0 1.0 0.00 0.00 0.00 89 1020.1
20260903094331 76 209 0.0 1.0 0.00 0.00 0.00 89 1020.1
20260903093849 76 209 0.0 1.0 0.00 0.00 0.00 89 1020.1
20260903093344 76 209 0.0 0.0 0.00 0.00 0.00 89 1020.1
20260903092839 76 209 0.0 0.0 0.00 0.00 0.00 89 1020.1
20260903092342 76 209 0.0 0.0 0.00 0.00 0.00 89 1020.1
20260903091836 76 209 0.0 0.0 0.00 0.00 0.00 88 1020.1
20260903091356 76 209 0.0 1.0 0.00 0.00 0.00 88 1020.1
20260903090852 76 206 0.0 1.0 0.00 0.00 0.00 88 1020.1
20260903090348 76 206 0.0 1.0 0.00 0.00 0.00 88 1020.0
20260903085845 76 206 0.0 1.0 0.00 0.00 0.00 88 1020.2
20260903085342 76 206 1.0 1.0 0.00 0.00 0.00 88 1020.0
20260903084840 77 206 0.0 0.0 0.00 0.00 0.00 88 1020.1
20260903084340 77 206 0.0 1.0 0.00 0.00 0.00 88 1020.1
20260903083837 77 206 0.0 1.0 0.00 0.00 0.00 88 1020.1
20260903083332 77 206 0.0 0.0 0.00 0.00 0.00 88 1020.1
20260903082909 77 206 0.0 0.0 0.00 0.00 0.00 88 1020.1
20260903082347 77 206 0.0 0.0 0.00 0.00 0.00 87 1020.0
20260903081841 77 206 0.0 1.0 0.00 0.00 0.00 87 1020.1
20260903081341 77 206 0.0 3.0 0.00 0.00 0.00 87 1020.1
20260903080838 77 206 1.0 4.0 0.00 0.00 0.00 87 1020.0
20260903080334 77 190 2.0 3.0 0.00 0.00 0.00 87 1019.9
20260903075835 78 190 0.0 2.0 0.00 0.00 0.00 87 1019.9
20260903075334 78 44 0.0 0.0 0.00 0.00 0.00 87 1020.0
20260903074909 78 44 0.0 0.0 0.00 0.00 0.00 87 1019.9
20260903074346 78 44 0.0 0.0 0.00 0.00 0.00 87 1019.9
20260903073904 78 44 0.0 0.0 0.00 0.00 0.00 86 1019.9
20260903073338 78 44 0.0 0.0 0.00 0.00 0.00 86 1019.8
20260903072855 78 44 0.0 0.0 0.00 0.00 0.00 85 1019.6
20260903072332 78 44 0.0 0.0 0.00 0.00 0.00 85 1019.7
20260903071910 78 44 0.0 0.0 0.00 0.00 0.00 85 1019.7
20260903071346 78 44 0.0 0.0 0.00 0.00 0.00 85 1019.8
20260903070844 78 44 0.0 0.0 0.00 0.00 0.00 85 1019.7
20260903070340 78 44 0.0 0.0 0.00 0.00 0.00 84 1019.7
20260903065836 78 44 0.0 0.0 0.00 0.00 0.00 84 1019.7
20260903065335 78 44 0.0 0.0 0.00 0.00 0.00 84 1019.6
20260903064832 79 44 0.0 0.0 0.00 0.00 0.00 83 1019.8
20260903064351 79 44 0.0 0.0 0.00 0.00 0.00 84 1019.8
20260903063847 79 44 0.0 0.0 0.00 0.00 0.00 83 1019.7
20260903063343 79 44 0.0 0.0 0.00 0.00 0.00 83 1019.8
20260903062841 79 44 0.0 0.0 0.00 0.00 0.00 83 1019.8
20260903062340 79 44 0.0 0.0 0.00 0.00 0.00 83 1019.9
20260903061842 79 44 0.0 0.0 0.00 0.00 0.00 82 1019.9
20260903061400 79 44 0.0 0.0 0.00 0.00 0.00 82 1019.9
20260903060835 79 44 0.0 0.0 0.00 0.00 0.00 82 1020.1
20260903060350 80 44 0.0 0.0 0.00 0.00 0.00 82 1020.1
20260903055846 80 44 0.0 0.0 0.00 0.00 0.00 81 1020.0
20260903055346 80 44 0.0 0.0 0.00 0.00 0.00 81 1020.0
20260903054842 80 44 0.0 0.0 0.00 0.00 0.00 81 1020.1
20260903054341 80 44 0.0 0.0 0.00 0.00 0.00 81 1020.1
20260903053839 80 44 0.0 0.0 0.00 0.00 0.00 81 1020.0
20260903053353 80 44 0.0 0.0 0.00 0.00 0.00 81 1020.0
20260903052848 80 44 0.0 0.0 0.00 0.00 0.00 80 1020.0
20260903052347 81 44 0.0 0.0 0.00 0.00 0.00 80 1020.0
20260903051906 81 44 0.0 0.0 0.00 0.00 0.00 79 1019.9
20260903051344 81 44 0.0 0.0 0.00 0.00 0.00 80 1019.9
20260903050841 81 44 0.0 0.0 0.00 0.00 0.00 79 1020.0
20260903050335 81 44 0.0 0.0 0.00 0.00 0.00 79 1019.9
20260903045849 81 44 0.0 0.0 0.00 0.00 0.00 79 1020.0
20260903045348 81 44 0.0 0.0 0.00 0.00 0.00 78 1020.5
20260903044831 81 44 0.0 0.0 0.00 0.00 0.00 77 1019.9
20260903044330 82 44 0.0 0.0 0.00 0.00 0.00 77 1019.9
20260903043848 82 44 0.0 0.0 0.00 0.00 0.00 77 1019.9
20260903043343 82 44 0.0 0.0 0.00 0.00 0.00 76 1019.8
20260903042855 82 44 0.0 0.0 0.00 0.00 0.00 76 1019.9
20260903042353 82 44 0.0 0.0 0.00 0.00 0.00 75 1019.9
20260903041829 82 44 0.0 0.0 0.00 0.00 0.00 75 1019.9
20260903041349 82 44 0.0 0.0 0.00 0.00 0.00 75 1019.8
20260903040905 82 44 0.0 0.0 0.00 0.00 0.00 75 1019.9
20260903040340 82 44 0.0 0.0 0.00 0.00 0.00 75 1019.9
20260903035837 82 44 0.0 0.0 0.00 0.00 0.00 74 1020.0
20260903035334 82 44 0.0 0.0 0.00 0.00 0.00 74 1019.9
20260903034832 83 44 0.0 0.0 0.00 0.00 0.00 74 1020.0
20260903034331 83 44 0.0 0.0 0.00 0.00 0.00 74 1020.1
20260903033849 83 44 0.0 0.0 0.00 0.00 0.00 74 1020.1
20260903033344 83 44 0.0 0.0 0.00 0.00 0.00 74 1020.1
20260903032842 83 44 0.0 0.0 0.00 0.00 0.00 73 1020.0
20260903032340 83 44 0.0 0.0 0.00 0.00 0.00 73 1020.0
20260903031836 84 44 0.0 0.0 0.00 0.00 0.00 73 1020.2
20260903031340 84 44 0.0 0.0 0.00 0.00 0.00 72 1020.1
20260903030838 84 44 0.0 0.0 0.00 0.00 0.00 71 1020.2
20260903030334 84 44 0.0 0.0 0.00 0.00 0.00 71 1020.2
20260903025832 84 44 0.0 0.0 0.00 0.00 0.00 71 1020.2
20260903025331 84 44 0.0 0.0 0.00 0.00 0.00 70 1020.0
20260903024847 84 44 0.0 0.0 0.00 0.00 0.00 70 1020.1
20260903024345 84 44 0.0 0.0 0.00 0.00 0.00 70 1020.1
20260903023902 85 44 0.0 0.0 0.00 0.00 0.00 70 1020.0
20260903023336 84 44 0.0 0.0 0.00 0.00 0.00 69 1019.9
20260903022833 84 44 0.0 0.0 0.00 0.00 0.00 69 1019.9
20260903022332 85 44 0.0 0.0 0.00 0.00 0.00 69 1020.1
20260903021849 85 44 0.0 0.0 0.00 0.00 0.00 70 1019.9
20260903021345 85 44 0.0 0.0 0.00 0.00 0.00 70 1020.1
20260903020844 85 44 0.0 0.0 0.00 0.00 0.00 70 1020.0
20260903020339 85 44 0.0 0.0 0.00 0.00 0.00 70 1019.9
20260903015836 85 44 0.0 0.0 0.00 0.00 0.00 70 1020.1
20260903015339 85 44 0.0 1.0 0.00 0.00 0.00 71 1020.0
20260903014836 86 44 0.0 1.0 0.00 0.00 0.00 70 1019.9
20260903014335 86 44 1.0 1.0 0.00 0.00 0.00 70 1019.9
20260903013851 86 44 0.0 1.0 0.00 0.00 0.00 69 1019.8
20260903013347 86 44 0.0 1.0 0.00 0.00 0.00 69 1019.8
20260903012845 86 44 1.0 1.0 0.00 0.00 0.00 68 1019.7
20260903012405 86 44 1.0 1.0 0.00 0.00 0.00 67 1019.6
20260903011840 87 44 0.0 0.0 0.00 0.00 0.00 67 1019.6
20260903011359 87 44 0.0 0.0 0.00 0.00 0.00 66 1019.5
20260903010834 87 44 0.0 0.0 0.00 0.00 0.00 66 1019.5
20260903010329 87 44 0.0 0.0 0.00 0.00 0.00 66 1019.4
20260903005847 88 44 0.0 0.0 0.00 0.00 0.00 65 1019.3
20260903005346 88 44 0.0 0.0 0.00 0.00 0.00 64 1019.4
20260903004844 88 44 0.0 0.0 0.00 0.00 0.00 63 1019.4
20260903004402 89 44 0.0 0.0 0.00 0.00 0.00 62 1019.3
20260903003839 89 44 0.0 0.0 0.00 0.00 0.00 61 1019.4
20260903003333 89 44 0.0 0.0 0.00 0.00 0.00 60 1019.2
20260903002850 90 44 0.0 1.0 0.00 0.00 0.00 59 1019.2
20260903002332 90 44 0.0 1.0 0.00 0.00 0.00 59 1019.2
20260903001830 90 44 0.0 0.0 0.00 0.00 0.00 58 1019.2
20260903001329 90 44 0.0 1.0 0.00 0.00 0.00 58 1019.2
20260903000848 91 44 0.0 2.0 0.00 0.00 0.00 57 1019.2
20260903000343 91 44 0.0 2.0 0.00 0.00 0.00 56 1019.1
20260902235839 91 44 0.0 3.0 0.00 0.00 0.00 57 1019.2
20260902235337 91 44 1.0 3.0 0.00 0.00 0.00 56 1019.1
20260902234834 91 44 0.0 3.0 0.00 0.00 0.00 56 1019.1
20260902234333 92 44 0.0 3.0 0.00 0.00 0.00 56 1019.1
20260902233850 92 44 0.0 1.0 0.00 0.00 0.00 55 1019.1
20260902233345 92 44 0.0 2.0 0.00 0.00 0.00 55 1019.1
20260902232841 92 44 1.0 2.0 0.00 0.00 0.00 55 1019.1
20260902232340 93 44 1.0 4.0 0.00 0.00 0.00 55 1019.1
20260902231835 93 44 2.0 4.0 0.00 0.00 0.00 54 1019.2
20260902231336 93 90 1.0 3.0 0.00 0.00 0.00 55 1019.1
20260902230837 93 5 0.0 4.0 0.00 0.00 0.00 54 1019.1
20260902230331 94 5 2.0 5.0 0.00 0.00 0.00 54 1019.1
20260902225909 94 18 1.0 4.0 0.00 0.00 0.00 53 1019.2
20260902225346 95 18 2.0 4.0 0.00 0.00 0.00 53 1019.2
20260902224844 95 14 2.0 6.0 0.00 0.00 0.00 52 1019.1
20260902224403 95 105 3.0 6.0 0.00 0.00 0.00 51 1019.2
20260902223836 95 40 1.0 5.0 0.00 0.00 0.00 51 1019.2
20260902223332 95 40 2.0 4.0 0.00 0.00 0.00 50 1019.3
20260902222848 95 61 0.0 4.0 0.00 0.00 0.00 49 1019.3
20260902222347 95 38 1.0 4.0 0.00 0.00 0.00 50 1019.3
20260902221841 95 71 2.0 4.0 0.00 0.00 0.00 49 1019.3
20260902221401 95 76 2.0 4.0 0.00 0.00 0.00 49 1019.2
20260902220838 96 76 2.0 3.0 0.00 0.00 0.00 49 1019.3
20260902220334 96 49 1.0 4.0 0.00 0.00 0.00 49 1019.4
20260902215830 96 50 2.0 4.0 0.00 0.00 0.00 48 1019.4
20260902215348 96 61 2.0 3.0 0.00 0.00 0.00 48 1019.4
20260902214843 96 61 1.0 5.0 0.00 0.00 0.00 47 1019.5
20260902214343 96 62 3.0 5.0 0.00 0.00 0.00 48 1019.5
20260902213838 96 140 2.0 5.0 0.00 0.00 0.00 47 1019.4
20260902213338 96 11 3.0 5.0 0.00 0.00 0.00 48 1019.5
20260902212858 97 23 2.0 3.0 0.00 0.00 0.00 48 1019.4
20260902212336 97 46 1.0 9.0 0.00 0.00 0.00 48 1019.4
20260902211911 98 324 2.0 8.0 0.00 0.00 0.00 46 1019.4
20260902211346 99 58 5.0 8.0 0.00 0.00 0.00 45 1019.5
20260902210844 99 42 3.0 7.0 0.00 0.00 0.00 46 1019.6
20260902210340 99 26 2.0 7.0 0.00 0.00 0.00 46 1019.5
20260902205836 99 152 2.0 7.0 0.00 0.00 0.00 46 1019.5
20260902205335 99 126 1.0 5.0 0.00 0.00 0.00 46 1019.6
20260902204833 99 35 1.0 4.0 0.00 0.00 0.00 46 1019.5
20260902204331 99 340 1.0 4.0 0.00 0.00 0.00 46 1019.7
20260902203848 99 319 1.0 4.0 0.00 0.00 0.00 47 1019.6
20260902203344 99 18 2.0 3.0 0.00 0.00 0.00 46 1019.7
20260902202842 99 55 1.0 7.0 0.00 0.00 0.00 47 1019.8
20260902202341 98 59 3.0 7.0 0.00 0.00 0.00 47 1019.8
20260902201838 98 74 1.0 4.0 0.00 0.00 0.00 47 1019.9
20260902201358 98 5 2.0 8.0 0.00 0.00 0.00 47 1020.0
20260902200853 99 9 2.0 8.0 0.00 0.00 0.00 46 1020.0
20260902200332 99 69 2.0 10.0 0.00 0.00 0.00 46 1020.0
20260902195829 99 131 6.0 10.0 0.00 0.00 0.00 46 1020.1
20260902195349 100 84 3.0 6.0 0.00 0.00 0.00 47 1020.1
20260902194844 100 145 2.0 9.0 0.00 0.00 0.00 46 1020.1
20260902194344 99 117 3.0 9.0 0.00 0.00 0.00 47 1020.2
20260902193839 99 191 3.0 7.0 0.00 0.00 0.00 48 1020.2
20260902193353 99 135 3.0 7.0 0.00 0.00 0.00 48 1020.3
20260902192909 99 118 2.0 7.0 0.00 0.00 0.00 49 1020.5
20260902192407 98 78 2.0 5.0 0.00 0.00 0.00 50 1020.5
20260902191843 97 123 3.0 5.0 0.00 0.00 0.00 50 1020.5
20260902191342 98 5 2.0 10.0 0.00 0.00 0.00 49 1020.6
20260902190839 98 341 5.0 10.0 0.00 0.00 0.00 49 1020.7